�������l�o���
Date,Time,MP-1(��Sv/h),MP-2(��Sv/h),MP-3(��Sv/h),MP-4(��Sv/h),MP-5(��Sv/h),MP-6(��Sv/h),MP-7(��Sv/h),MP-8(��Sv/h),����,����(m/s),���J
2021/06/10,00:00,0.626,0.935,0.589,1.134,0.814,0.372,0.648,0.605,�k�k��,1.2,��
2021/06/10,00:10,0.624,0.933,0.587,1.133,0.816,0.373,0.647,0.604,�k�k��,1.5,��
2021/06/10,00:20,0.625,0.935,0.587,1.133,0.814,0.372,0.646,0.604,�k�k��,1.5,��
2021/06/10,00:30,0.626,0.936,0.589,1.134,0.814,0.370,0.647,0.605,�k�k��,1.2,��
2021/06/10,00:40,0.625,0.934,0.589,1.136,0.814,0.372,0.648,0.604,���k��,1.5,��
2021/06/10,00:50,0.625,0.935,0.588,1.136,0.815,0.372,0.647,0.605,�k�k��,0.9,��
2021/06/10,01:00,0.625,0.934,0.588,1.135,0.815,0.373,0.647,0.605,�k�k��,1.1,��
2021/06/10,01:10,0.627,0.935,0.588,1.134,0.815,0.372,0.648,0.605,�k�k��,1.2,��
2021/06/10,01:20,0.627,0.935,0.586,1.135,0.817,0.372,0.647,0.605,�k��,1.1,��
2021/06/10,01:30,0.627,0.933,0.588,1.135,0.814,0.373,0.646,0.606,�k,1.2,��
2021/06/10,01:40,0.626,0.935,0.588,1.135,0.816,0.373,0.647,0.604,�k,1.1,��
2021/06/10,01:50,0.625,0.933,0.589,1.133,0.814,0.373,0.647,0.606,�k,0.9,��
2021/06/10,02:00,0.626,0.936,0.589,1.134,0.814,0.372,0.647,0.604,�k�k��,0.9,��
2021/06/10,02:10,0.627,0.934,0.588,1.135,0.816,0.373,0.648,0.606,�k,1.2,��
2021/06/10,02:20,0.625,0.934,0.587,1.134,0.815,0.373,0.646,0.604,-,CALM,��
2021/06/10,02:30,0.627,0.937,0.588,1.137,0.816,0.372,0.646,0.605,�k��,0.9,��
2021/06/10,02:40,0.626,0.933,0.589,1.135,0.814,0.371,0.648,0.605,�k�k��,0.6,��
2021/06/10,02:50,0.626,0.933,0.588,1.137,0.816,0.372,0.647,0.604,�k��,0.9,��
2021/06/10,03:00,0.627,0.934,0.588,1.138,0.817,0.372,0.647,0.607,��,0.8,��
2021/06/10,03:10,0.626,0.935,0.589,1.136,0.813,0.373,0.646,0.606,��쓌,0.9,��
2021/06/10,03:20,0.625,0.934,0.588,1.133,0.814,0.372,0.646,0.607,��쐼,0.6,��
2021/06/10,03:30,0.627,0.933,0.587,1.134,0.814,0.371,0.647,0.605,��,1.7,��
2021/06/10,03:40,0.627,0.933,0.588,1.134,0.814,0.371,0.646,0.605,��,1.9,��
2021/06/10,03:50,0.625,0.934,0.588,1.136,0.813,0.370,0.648,0.605,��,1.7,��
2021/06/10,04:00,0.626,0.934,0.588,1.134,0.813,0.371,0.648,0.606,��쐼,1.7,��
2021/06/10,04:10,0.626,0.933,0.588,1.134,0.817,0.372,0.648,0.605,�쐼,1.5,��
2021/06/10,04:20,0.626,0.934,0.589,1.137,0.814,0.371,0.646,0.607,�쐼,1.2,��
2021/06/10,04:30,0.625,0.936,0.589,1.137,0.814,0.373,0.648,0.604,��쓌,1.2,��
2021/06/10,04:40,0.625,0.935,0.590,1.135,0.814,0.372,0.649,0.604,��,1.2,��
2021/06/10,04:50,0.628,0.935,0.588,1.137,0.814,0.372,0.646,0.606,�쐼,1.7,��
2021/06/10,05:00,0.628,0.934,0.590,1.135,0.816,0.371,0.647,0.606,��,1.5,��
2021/06/10,05:10,0.629,0.935,0.588,1.136,0.817,0.372,0.648,0.603,��쓌,0.6,��
2021/06/10,05:20,0.627,0.934,0.588,1.136,0.816,0.372,0.647,0.605,��쐼,1.2,��
2021/06/10,05:30,0.630,0.935,0.589,1.134,0.816,0.374,0.647,0.606,���k��,0.6,��
2021/06/10,05:40,0.627,0.935,0.589,1.135,0.817,0.372,0.646,0.605,�쐼,1.2,��
2021/06/10,05:50,0.627,0.936,0.590,1.135,0.815,0.373,0.647,0.606,��,1.2,��
2021/06/10,06:00,0.626,0.935,0.590,1.137,0.817,0.373,0.646,0.606,�쐼,1.5,��
2021/06/10,06:10,0.628,0.935,0.590,1.138,0.817,0.372,0.646,0.605,��,1.2,��
2021/06/10,06:20,0.627,0.933,0.590,1.135,0.818,0.373,0.647,0.607,�쐼,1.2,��
2021/06/10,06:30,0.626,0.932,0.587,1.137,0.816,0.373,0.647,0.605,��,1.2,��
2021/06/10,06:40,0.626,0.931,0.588,1.136,0.815,0.373,0.646,0.604,��,1.5,��
2021/06/10,06:50,0.627,0.930,0.590,1.139,0.816,0.371,0.647,0.604,�쓌,1.2,��
2021/06/10,07:00,0.625,0.931,0.589,1.135,0.815,0.372,0.648,0.603,���쓌,2.5,��
2021/06/10,07:10,0.626,0.931,0.588,1.135,0.814,0.370,0.646,0.604,���쓌,2.3,��
2021/06/10,07:20,0.625,0.931,0.587,1.134,0.815,0.372,0.647,0.602,�쓌,3.0,��
2021/06/10,07:30,0.623,0.934,0.587,1.139,0.813,0.371,0.646,0.604,�쓌,2.6,��
2021/06/10,07:40,0.625,0.932,0.590,1.137,0.813,0.372,0.646,0.604,�쓌,2.6,��
2021/06/10,07:50,0.627,0.931,0.588,1.139,0.814,0.371,0.646,0.604,��쓌,3.1,��
2021/06/10,08:00,0.624,0.935,0.587,1.138,0.814,0.371,0.646,0.603,�쓌,3.3,��
2021/06/10,08:10,0.626,0.933,0.588,1.136,0.814,0.372,0.649,0.604,�쓌,3.0,��
2021/06/10,08:20,0.625,0.934,0.589,1.138,0.815,0.372,0.647,0.603,��쓌,3.8,��
2021/06/10,08:30,0.625,0.933,0.588,1.137,0.813,0.371,0.648,0.603,��쓌,2.9,��
2021/06/10,08:40,0.628,0.931,0.587,1.136,0.814,0.373,0.647,0.603,�쓌,2.6,��
2021/06/10,08:50,0.626,0.932,0.589,1.137,0.815,0.371,0.647,0.603,�쓌,3.1,��
2021/06/10,09:00,0.626,0.933,0.587,1.137,0.816,0.371,0.647,0.603,�쓌,2.6,��
2021/06/10,09:10,0.627,0.932,0.588,1.135,0.814,0.371,0.647,0.604,�쓌,2.3,��
2021/06/10,09:20,0.627,0.934,0.586,1.139,0.813,0.371,0.647,0.605,�쓌,3.7,��
2021/06/10,09:30,0.628,0.935,0.588,1.137,0.815,0.371,0.646,0.606,�쓌,3.3,��
2021/06/10,09:40,0.628,0.935,0.587,1.138,0.814,0.374,0.646,0.602,��쓌,3.4,��
2021/06/10,09:50,0.625,0.935,0.589,1.138,0.814,0.372,0.648,0.603,���쓌,3.2,��
2021/06/10,10:00,0.627,0.936,0.589,1.138,0.816,0.371,0.647,0.604,��쓌,3.1,��
2021/06/10,10:10,0.628,0.935,0.590,1.138,0.814,0.372,0.647,0.605,��쓌,4.8,��
2021/06/10,10:20,0.627,0.935,0.589,1.138,0.816,0.372,0.648,0.604,��쓌,4.5,��
2021/06/10,10:30,0.623,0.934,0.587,1.137,0.817,0.371,0.649,0.604,�쓌,4.2,��
2021/06/10,10:40,0.625,0.932,0.588,1.138,0.818,0.371,0.647,0.604,��쓌,4.6,��
2021/06/10,10:50,0.630,0.934,0.586,1.141,0.818,0.373,0.650,0.603,��쓌,4.8,��
2021/06/10,11:00,0.628,0.933,0.589,1.137,0.818,0.372,0.648,0.605,��쓌,4.5,��
2021/06/10,11:10,0.628,0.933,0.588,1.136,0.816,0.372,0.649,0.605,��쓌,4.4,��
2021/06/10,11:20,0.627,0.935,0.589,1.134,0.812,0.372,0.649,0.605,��쓌,5.0,��
2021/06/10,11:30,0.627,0.936,0.588,1.135,0.817,0.372,0.647,0.604,��쓌,5.2,��
2021/06/10,11:40,0.629,0.936,0.586,1.135,0.819,0.371,0.648,0.604,��쓌,5.4,��
2021/06/10,11:50,0.630,0.938,0.590,1.137,0.818,0.372,0.646,0.605,��쓌,5.8,��
2021/06/10,12:00,0.628,0.936,0.589,1.136,0.819,0.371,0.648,0.606,��쓌,5.3,��
2021/06/10,12:10,0.629,0.937,0.589,1.136,0.820,0.372,0.648,0.603,��쓌,5.6,��
2021/06/10,12:20,0.629,0.937,0.590,1.138,0.818,0.371,0.648,0.604,��쓌,5.1,��
2021/06/10,12:30,0.629,0.937,0.589,1.137,0.819,0.374,0.648,0.605,��쓌,5.4,��
2021/06/10,12:40,0.629,0.936,0.589,1.136,0.819,0.373,0.649,0.603,��쓌,6.3,��
2021/06/10,12:50,0.628,0.937,0.587,1.135,0.819,0.373,0.647,0.604,�쓌,6.5,��
2021/06/10,13:00,0.631,0.937,0.589,1.137,0.819,0.372,0.647,0.604,��쓌,6.5,��
2021/06/10,13:10,0.628,0.935,0.591,1.138,0.818,0.371,0.648,0.605,��쓌,7.1,��
2021/06/10,13:20,0.628,0.937,0.589,1.138,0.821,0.374,0.647,0.603,��쓌,6.2,��
2021/06/10,13:30,0.630,0.936,0.590,1.136,0.820,0.372,0.648,0.604,��쓌,6.9,��
2021/06/10,13:40,0.629,0.937,0.590,1.137,0.819,0.373,0.647,0.604,��쓌,7.2,��
2021/06/10,13:50,0.628,0.938,0.589,1.137,0.820,0.374,0.647,0.605,��쓌,7.1,��
2021/06/10,14:00,0.628,0.937,0.589,1.136,0.819,0.373,0.647,0.604,��쓌,6.8,��
2021/06/10,14:10,0.629,0.935,0.590,1.140,0.817,0.371,0.648,0.605,��쓌,6.9,��
2021/06/10,14:20,0.630,0.939,0.589,1.136,0.821,0.374,0.647,0.606,��쓌,7.2,��
2021/06/10,14:30,0.629,0.937,0.590,1.137,0.821,0.372,0.647,0.604,��쓌,8.2,��
2021/06/10,14:40,0.630,0.936,0.589,1.137,0.820,0.373,0.648,0.604,��쓌,8.3,��
2021/06/10,14:50,0.629,0.937,0.591,1.139,0.820,0.373,0.648,0.605,��쓌,8.2,��
2021/06/10,15:00,0.630,0.936,0.589,1.138,0.820,0.374,0.648,0.605,��쓌,8.0,��
2021/06/10,15:10,0.629,0.938,0.590,1.139,0.820,0.373,0.647,0.605,��쓌,8.2,��
2021/06/10,15:20,0.628,0.936,0.589,1.140,0.818,0.374,0.647,0.604,��쓌,7.4,��
2021/06/10,15:30,0.629,0.939,0.590,1.140,0.820,0.374,0.647,0.604,��쓌,6.9,��
2021/06/10,15:40,0.627,0.939,0.590,1.139,0.820,0.373,0.646,0.605,��쓌,7.7,��
2021/06/10,15:50,0.629,0.938,0.590,1.137,0.822,0.372,0.648,0.603,��쓌,8.4,��
2021/06/10,16:00,0.630,0.937,0.591,1.137,0.821,0.374,0.647,0.603,��,7.8,��
2021/06/10,16:10,0.630,0.938,0.590,1.139,0.820,0.374,0.648,0.602,��쓌,7.2,��
2021/06/10,16:20,0.630,0.940,0.590,1.139,0.821,0.372,0.647,0.605,��쓌,8.6,��
2021/06/10,16:30,0.629,0.935,0.590,1.138,0.820,0.373,0.646,0.606,��쓌,7.8,��
2021/06/10,16:40,0.630,0.937,0.591,1.140,0.821,0.374,0.647,0.604,��쓌,7.2,��
2021/06/10,16:50,0.631,0.937,0.588,1.137,0.820,0.373,0.648,0.604,��쓌,7.6,��
2021/06/10,17:00,0.631,0.937,0.590,1.139,0.819,0.373,0.647,0.604,��쓌,8.6,��
2021/06/10,17:10,0.630,0.938,0.591,1.139,0.819,0.374,0.645,0.604,��,8.1,��
2021/06/10,17:20,0.631,0.937,0.589,1.139,0.821,0.374,0.646,0.603,��,8.9,��
2021/06/10,17:30,0.632,0.938,0.589,1.139,0.819,0.373,0.649,0.605,��,8.3,��
2021/06/10,17:40,0.629,0.938,0.590,1.138,0.819,0.374,0.646,0.604,��쓌,8.0,��
2021/06/10,17:50,0.630,0.938,0.592,1.140,0.818,0.373,0.649,0.604,��,7.9,��
2021/06/10,18:00,0.630,0.941,0.591,1.139,0.819,0.373,0.646,0.605,��,7.7,��
2021/06/10,18:10,0.628,0.939,0.590,1.139,0.819,0.374,0.647,0.607,��,8.8,��
2021/06/10,18:20,0.629,0.941,0.589,1.139,0.819,0.373,0.646,0.606,��,7.9,��
2021/06/10,18:30,0.628,0.940,0.588,1.140,0.819,0.374,0.646,0.606,��쓌,7.5,��
2021/06/10,18:40,0.630,0.940,0.589,1.139,0.818,0.374,0.647,0.607,��,7.4,��
2021/06/10,18:50,0.630,0.940,0.589,1.141,0.819,0.374,0.646,0.609,��,9.3,��
2021/06/10,19:00,0.630,0.940,0.590,1.143,0.820,0.374,0.647,0.606,��,8.2,��
2021/06/10,19:10,0.630,0.941,0.588,1.141,0.819,0.374,0.648,0.607,��,7.9,��
2021/06/10,19:20,0.629,0.942,0.589,1.141,0.821,0.376,0.649,0.607,��,7.8,��
2021/06/10,19:30,0.628,0.941,0.591,1.142,0.820,0.374,0.650,0.607,��,7.4,��
2021/06/10,19:40,0.630,0.942,0.592,1.143,0.821,0.374,0.649,0.607,��,7.4,��
2021/06/10,19:50,0.632,0.941,0.594,1.142,0.821,0.374,0.649,0.605,��,6.8,��
2021/06/10,20:00,0.630,0.940,0.592,1.142,0.821,0.374,0.650,0.606,��,7.2,��
2021/06/10,20:10,0.631,0.942,0.592,1.145,0.821,0.375,0.649,0.606,��,7.3,��
2021/06/10,20:20,0.629,0.941,0.593,1.143,0.821,0.375,0.650,0.609,��,7.2,��
2021/06/10,20:30,0.630,0.942,0.591,1.143,0.821,0.375,0.651,0.608,��,6.3,��
2021/06/10,20:40,0.630,0.942,0.592,1.141,0.823,0.375,0.650,0.607,��,6.5,��
2021/06/10,20:50,0.630,0.941,0.592,1.141,0.823,0.375,0.650,0.607,��,6.6,��
2021/06/10,21:00,0.633,0.942,0.591,1.141,0.824,0.375,0.649,0.607,��,6.4,��
2021/06/10,21:10,0.630,0.939,0.591,1.140,0.821,0.374,0.649,0.607,��,6.7,��
2021/06/10,21:20,0.632,0.940,0.591,1.140,0.822,0.376,0.648,0.607,��,6.3,��
2021/06/10,21:30,0.633,0.940,0.590,1.142,0.822,0.374,0.649,0.608,��,5.8,��
2021/06/10,21:40,0.631,0.942,0.592,1.141,0.821,0.375,0.650,0.607,��,5.9,��
2021/06/10,21:50,0.631,0.943,0.593,1.139,0.821,0.376,0.647,0.605,��,5.3,��
2021/06/10,22:00,0.630,0.942,0.590,1.140,0.821,0.374,0.649,0.607,��,5.4,��
2021/06/10,22:10,0.630,0.940,0.592,1.145,0.821,0.374,0.648,0.607,��,5.2,��
2021/06/10,22:20,0.630,0.941,0.591,1.143,0.821,0.374,0.650,0.607,��,5.6,��
2021/06/10,22:30,0.630,0.942,0.593,1.141,0.823,0.376,0.650,0.605,��,6.0,��
2021/06/10,22:40,0.629,0.941,0.592,1.142,0.821,0.375,0.649,0.606,��,6.1,��
2021/06/10,22:50,0.632,0.940,0.591,1.142,0.825,0.375,0.648,0.606,��,5.0,��
2021/06/10,23:00,0.632,0.940,0.594,1.142,0.822,0.375,0.648,0.607,��,5.6,��
2021/06/10,23:10,0.631,0.943,0.592,1.144,0.823,0.375,0.651,0.606,��,5.5,��
2021/06/10,23:20,0.631,0.941,0.590,1.142,0.821,0.375,0.649,0.607,��,5.8,��
2021/06/10,23:30,0.632,0.942,0.592,1.143,0.822,0.375,0.649,0.607,��,6.2,��
2021/06/10,23:40,0.631,0.941,0.592,1.143,0.821,0.375,0.649,0.606,��,6.1,��
2021/06/10,23:50,0.632,0.941,0.591,1.144,0.821,0.375,0.651,0.605,��,5.8,��
